Tracking 19908 objects as of 19-Oct-2019
HD Live streaming from Space Station
objects crossing your sky now

TITAN 3C TRANSTAGE DEB

Track TITAN 3C TRANSTAGE DEB now!
10-day predictions


NORAD ID: 1680
Int'l Code: 1965-082AT
Perigee: 673.4 km
Apogee: 704.3 km
Inclination: 32.3 °
Period: 98.4 minutes
Semi major axis: 7059 km
RCS: 2.2194 m2 (large)
Launch date: October 15, 1965
Source: United States (US)
Launch site: AIR FORCE EASTERN TEST RANGE (AFETR)

Note: This is SATELLITE DEBRIS
aabbcc
Your satellite tracking list
Your tracking list is empty




NASA's NSSDC Master Catalog

Two Line Element Set (TLE):
1  1680U 65082AT  19291.89086491 +.00000089 +00000-0 +10039-4 0  9997
2  1680 032.2555 180.7246 0021864 252.6480 107.1776 14.63549399856781
Source of the keplerian elements: AFSPC